Hourly Data Report for October 15, 2014

All times are specified in Local Standard Time (LST). Add 1 hour to adjust for Daylight Saving Time where and when it is observed.

ARVIAT A
NUNAVUT

61°05'38.000" N
94°04'18.000" W
10.40 m
2300427
71174
YEK

Download Data

Hourly Data (October 2014)
Hourly Data Report for October 15, 2014
Temp Definition
°C
Dew Point Temp Definition
°C
Rel Hum Definition
%
Wind Dir Definition
10's deg

Wind Spd Definition
km/h
Visibility Definition
km
Stn Press Definition
kPa
Hmdx Definition


Wind Chill Definition


Weather Definition


TIME
00:00 Legend Double Dagger -9.1 -9.6 96 26 9 16.1 101.31   -14 LegendNANA
01:00 Legend Double Dagger -6.6 -7.1 96 25 11 16.1 101.34   -12 LegendNANA
02:00 Legend Double Dagger -4.7 -5.5 94 26 13 16.1 101.38   -10 LegendNANA
03:00 Legend Double Dagger -4.1 -5.1 93 28 9 16.1 101.36   -8 LegendNANA
04:00 Legend Double Dagger -4.1 -5.6 89 32 22 16.1 101.33   -11 LegendNANA
05:00 Legend Double Dagger -4.7 -6.4 88 31 21 16.1 101.35   -11 LegendNANA
06:00 Legend Double Dagger -6.4 -6.9 96 32 17 16.1 101.35   -13 LegendNANA
07:00 Legend Double Dagger -5.8 -6.1 98 34 17 16.1 101.31   -12 LegendNANA
08:00 Legend Double Dagger -5.5 -6.2 95 36 13 16.1 101.31   -11 LegendNANA
09:00 Legend Double Dagger -5.2 -6.0 94 1 13 16.1 101.28   -10 LegendNANA
10:00 Legend Double Dagger -4.5 -5.4 94 36 11 16.1 101.28   -9 LegendNANA
11:00 Legend Double Dagger -3.8 -5.1 91 1 11 16.1 101.26   -8 LegendNANA
12:00 Legend Double Dagger -3.3 -4.6 91 2 17 16.1 101.23   -9 LegendNANA
13:00 Legend Double Dagger -2.9 -4.5 89 2 17 16.1 101.22   -8 LegendNANA
14:00 Legend Double Dagger -3.0 -4.3 91 2 22 14.5 101.16   -9 Snow
15:00 Legend Double Dagger -3.0 -4.1 92 2 22 4.8 101.14   -9 Snow
16:00 Legend Double Dagger -3.1 -4.2 92 2 26 6.4 101.11   -10 Snow
17:00 Legend Double Dagger -3.0 -4.0 93 2 26 2.4 101.12   -10 Snow
18:00 Legend Double Dagger -2.8 -3.6 94 2 30 2.8 101.12   -10 Snow
19:00 Legend Double Dagger -2.7 -3.6 94 1 30 4.0 101.11   -10 Snow
20:00 Legend Double Dagger -2.6 -3.2 96 2 34 2.4 101.15   -10 Snow
21:00 Legend Double Dagger -3.0 -3.6 96 1 32 2.0 101.17   -11 Snow
22:00 Legend Double Dagger -3.1 -3.8 95 1 34 2.4 101.19   -11 Snow
23:00 Legend Double Dagger -2.8 -3.9 92 1 34 6.4 101.24   -11 Snow

Notes on Data Quality.

Legend

  • E = Estimated
  • M = Missing
  • NA = Not Available
  • ‡ = Partner data that is not subject to review by the National Climate Archives
Date modified: